• In Denmark
  • List of Countries
  • For 7 days
  • Water Temperature
  • Satellite Maps
  • Weather Map
  • Weather Widgets
  • user-avatar
    Login

    Hourly Weather Townsville

    Today, 25 September, Monday

    Time Temperature Precipitation Wind Pressure Humidity
    00:00 +21°C° 0 mm 1 mps 754 mmHg 89%
    01:00 +20°C° 0 mm 1 mps 754 mmHg 91%
    02:00 +19°C° 0 mm 2 mps 754 mmHg 91%
    03:00 +19°C° 0 mm 2 mps 754 mmHg 92%
    04:00 +19°C° 0 mm 2 mps 754 mmHg 93%
    05:00 +19°C° 0 mm 2 mps 754 mmHg 89%
    06:00 +20°C° 0 mm 2 mps 755 mmHg 86%
    07:00 +21°C° 0 mm 2 mps 755 mmHg 82%
    08:00 +24°C° 0 mm 2 mps 755 mmHg 70%
    09:00 +27°C° 0 mm 3 mps 755 mmHg 57%
    10:00 +29°C° 0 mm 3 mps 755 mmHg 45%
    11:00 +30°C° 0 mm 3 mps 755 mmHg 42%
    12:00 +31°C° 0 mm 3 mps 754 mmHg 40%
    13:00 +33°C° 0 mm 3 mps 754 mmHg 37%
    14:00 +31°C° 0 mm 3 mps 753 mmHg 40%
    15:00 +30°C° 0 mm 3 mps 753 mmHg 42%
    16:00 +29°C° 0 mm 3 mps 753 mmHg 45%
    17:00 +27°C° 0 mm 3 mps 753 mmHg 55%
    18:00 +25°C° 0 mm 2 mps 753 mmHg 66%
    19:00 +23°C° 0 mm 2 mps 753 mmHg 77%
    20:00 +21°C° 0 mm 2 mps 754 mmHg 80%
    21:00 +21°C° 0 mm 2 mps 754 mmHg 84%
    22:00 +20°C° 0 mm 2 mps 755 mmHg 87%
    23:00 +20°C° 0 mm 2 mps 755 mmHg 89%

    Tomorrow, 26 September, Tuesday

    Time Temperature Precipitation Wind Pressure Humidity
    00:00 +20°C° 0 mm 2 mps 754 mmHg 90%
    01:00 +20°C° 0 mm 2 mps 754 mmHg 92%
    02:00 +19°C° 0 mm 2 mps 754 mmHg 93%
    03:00 +19°C° 0 mm 2 mps 754 mmHg 93%
    04:00 +19°C° 0 mm 2 mps 754 mmHg 94%
    05:00 +20°C° 0 mm 2 mps 754 mmHg 91%
    06:00 +21°C° 0 mm 1 mps 755 mmHg 88%
    07:00 +22°C° 0 mm 1 mps 756 mmHg 85%
    08:00 +25°C° 0 mm 2 mps 756 mmHg 71%
    09:00 +27°C° 0 mm 2 mps 756 mmHg 58%
    10:00 +30°C° 0 mm 2 mps 756 mmHg 45%
    11:00 +31°C° 0 mm 2 mps 755 mmHg 41%
    12:00 +32°C° 0 mm 2 mps 755 mmHg 37%
    13:00 +34°C° 0 mm 3 mps 754 mmHg 33%
    14:00 +33°C° 0 mm 3 mps 754 mmHg 36%
    15:00 +31°C° 0 mm 3 mps 753 mmHg 39%
    16:00 +31°C° 0 mm 3 mps 753 mmHg 41%
    17:00 +28°C° 0 mm 3 mps 753 mmHg 55%
    18:00 +26°C° 0 mm 2 mps 754 mmHg 69%
    19:00 +23°C° 0 mm 2 mps 754 mmHg 82%
    20:00 +23°C° 0 mm 2 mps 754 mmHg 86%
    21:00 +21°C° 0 mm 2 mps 755 mmHg 90%
    22:00 +21°C° 0 mm 2 mps 755 mmHg 94%
    23:00 +21°C° 0 mm 2 mps 755 mmHg 95%

    Day after tomorrow, 27 September, Wednesday

    Time Temperature Precipitation Wind Pressure Humidity
    00:00 +21°C° 0 mm 2 mps 755 mmHg 96%
    01:00 +21°C° 0 mm 2 mps 755 mmHg 97%
    02:00 +21°C° 0 mm 2 mps 755 mmHg 96%
    03:00 +21°C° 0 mm 2 mps 755 mmHg 95%
    04:00 +23°C° 0 mm 2 mps 755 mmHg 93%
    05:00 +23°C° 0 mm 2 mps 755 mmHg 91%
    06:00 +23°C° 0 mm 2 mps 756 mmHg 89%
    07:00 +24°C° 0 mm 2 mps 756 mmHg 87%
    08:00 +26°C° 0 mm 3 mps 756 mmHg 76%
    09:00 +28°C° 0 mm 3 mps 756 mmHg 65%
    10:00 +30°C° 0 mm 3 mps 756 mmHg 54%
    11:00 +31°C° 0 mm 3 mps 756 mmHg 49%
    12:00 +33°C° 0 mm 3 mps 755 mmHg 44%
    13:00 +33°C° 0 mm 4 mps 754 mmHg 39%
    14:00 +33°C° 0 mm 3 mps 754 mmHg 40%
    15:00 +31°C° 0 mm 3 mps 754 mmHg 40%
    16:00 +31°C° 0 mm 3 mps 753 mmHg 41%
    17:00 +28°C° 0 mm 3 mps 754 mmHg 52%
    18:00 +26°C° 0 mm 2 mps 754 mmHg 63%
    19:00 +24°C° 0 mm 2 mps 755 mmHg 75%
    20:00 +23°C° 0 mm 2 mps 755 mmHg 80%
    21:00 +21°C° 0 mm 2 mps 756 mmHg 85%
    22:00 +22°C° 0 mm 1 mps 756 mmHg 90%
    23:00 +22°C° 0 mm 1 mps 756 mmHg 92%

    28 September, Thursday

    Time Temperature Precipitation Wind Pressure Humidity
    00:00 +21°C° 0 mm 1 mps 755 mmHg 93%
    01:00 +21°C° 0 mm 1 mps 755 mmHg 95%
    02:00 +21°C° 0 mm 1 mps 755 mmHg 94%
    03:00 +21°C° 0 mm 2 mps 755 mmHg 93%
    04:00 +21°C° 0 mm 2 mps 755 mmHg 92%
    05:00 +23°C° 0 mm 2 mps 755 mmHg 89%
    06:00 +22°C° 0 mm 3 mps 756 mmHg 86%
    07:00 +24°C° 0 mm 3 mps 756 mmHg 83%
    08:00 +26°C° 0 mm 3 mps 756 mmHg 73%
    09:00 +28°C° 0 mm 3 mps 756 mmHg 64%
    10:00 +29°C° 0 mm 4 mps 756 mmHg 55%
    11:00 +30°C° 0 mm 4 mps 755 mmHg 51%
    12:00 +32°C° 0 mm 4 mps 755 mmHg 47%
    13:00 +33°C° 0 mm 4 mps 754 mmHg 43%
    14:00 +32°C° 0 mm 4 mps 754 mmHg 46%
    15:00 +30°C° 0 mm 4 mps 753 mmHg 49%
    16:00 +30°C° 0 mm 4 mps 753 mmHg 51%
    17:00 +28°C° 0 mm 3 mps 753 mmHg 62%
    18:00 +26°C° 0 mm 3 mps 754 mmHg 72%
    19:00 +24°C° 0 mm 3 mps 754 mmHg 82%
    20:00 +23°C° 0 mm 2 mps 755 mmHg 86%
    21:00 +23°C° 0 mm 2 mps 755 mmHg 89%
    22:00 +21°C° 0 mm 2 mps 756 mmHg 92%
    23:00 +21°C° 0 mm 2 mps 756 mmHg 91%

    29 September, Friday

    Time Temperature Precipitation Wind Pressure Humidity
    00:00 +21°C° 0 mm 2 mps 755 mmHg 90%
    01:00 +21°C° 0 mm 3 mps 755 mmHg 89%
    02:00 +21°C° 0 mm 2 mps 755 mmHg 89%
    03:00 +21°C° 0 mm 2 mps 755 mmHg 89%
    04:00 +21°C° 0 mm 2 mps 755 mmHg 88%
    05:00 +21°C° 0 mm 2 mps 756 mmHg 85%
    06:00 +23°C° 0 mm 2 mps 756 mmHg 82%
    07:00 +23°C° 0 mm 2 mps 756 mmHg 79%
    08:00 +26°C° 0 mm 3 mps 757 mmHg 70%
    09:00 +28°C° 0 mm 3 mps 757 mmHg 60%
    10:00 +30°C° 0 mm 4 mps 757 mmHg 51%
    11:00 +32°C° 0 mm 4 mps 756 mmHg 49%
    12:00 +32°C° 0 mm 4 mps 755 mmHg 48%
    13:00 +33°C° 0 mm 4 mps 755 mmHg 46%
    14:00 +32°C° 0 mm 4 mps 754 mmHg 48%
    15:00 +31°C° 0 mm 3 mps 754 mmHg 50%
    16:00 +30°C° 0 mm 3 mps 754 mmHg 52%
    17:00 +28°C° 0 mm 3 mps 755 mmHg 62%
    18:00 +26°C° 0 mm 2 mps 755 mmHg 72%
    19:00 +24°C° 0 mm 2 mps 756 mmHg 82%
    20:00 +24°C° 0 mm 2 mps 756 mmHg 86%
    21:00 +23°C° 0 mm 2 mps 757 mmHg 90%
    22:00 +23°C° 0 mm 2 mps 757 mmHg 94%
    23:00 +23°C° 0 mm 2 mps 757 mmHg 95%

    30 September, Saturday

    Time Temperature Precipitation Wind Pressure Humidity
    00:00 +23°C° 0 mm 2 mps 756 mmHg 96%
    01:00 +21°C° 0 mm 2 mps 756 mmHg 97%
    02:00 +21°C° 0 mm 2 mps 756 mmHg 97%
    03:00 +21°C° 0 mm 2 mps 756 mmHg 97%
    04:00 +21°C° 0 mm 2 mps 756 mmHg 97%
    05:00 +23°C° 0 mm 2 mps 756 mmHg 95%
    06:00 +23°C° 0 mm 2 mps 756 mmHg 93%
    07:00 +24°C° 0 mm 2 mps 757 mmHg 91%
    08:00 +26°C° 0 mm 2 mps 757 mmHg 78%
    09:00 +28°C° 0 mm 3 mps 757 mmHg 64%
    10:00 +30°C° 0 mm 3 mps 757 mmHg 51%
    11:00 +32°C° 0 mm 4 mps 756 mmHg 46%
    12:00 +33°C° 0 mm 4 mps 756 mmHg 42%
    13:00 +34°C° 0 mm 4 mps 755 mmHg 38%
    14:00 +33°C° 0 mm 4 mps 755 mmHg 40%
    15:00 +32°C° 0 mm 4 mps 754 mmHg 42%
    16:00 +31°C° 0 mm 3 mps 754 mmHg 45%
    17:00 +28°C° 0 mm 3 mps 755 mmHg 58%
    18:00 +26°C° 0 mm 2 mps 755 mmHg 71%
    19:00 +24°C° 0 mm 2 mps 756 mmHg 83%
    20:00 +23°C° 0 mm 1 mps 756 mmHg 87%
    21:00 +23°C° 0 mm 1 mps 757 mmHg 91%
    22:00 +22°C° 0 mm 1 mps 757 mmHg 94%
    23:00 +22°C° 0 mm 1 mps 757 mmHg 95%
    Show more